FW3230 Weather Reports


time (UTC)temp
F
wind
direction
speed
knots
gust
knots
rain 1hr
in
rain 24hr
in
rain mn
in
humidity
%
barometer
mb
20260503230031 73 356 5.2 13.0 0.00 0.24 0.24 82 1015.7
20260503224505 73 322 5.2 13.0 0.00 0.24 0.24 81 1015.6
20260503223025 73 286 5.2 12.2 0.00 0.24 0.24 81 1015.7
20260503221557 73 314 3.5 10.4 0.00 0.24 0.24 81 1015.7
20260503220037 73 316 3.5 8.7 0.00 0.24 0.24 80 1015.8
20260503214546 73 298 4.3 10.4 0.00 0.24 0.24 80 1015.7
20260503213028 73 334 3.5 7.8 0.00 0.24 0.24 80 1015.8
20260503211604 73 309 3.5 8.7 0.00 0.24 0.24 80 1015.8
20260503210006 73 328 2.6 9.6 0.00 0.24 0.24 80 1016.0
20260503204547 73 329 2.6 7.8 0.00 0.24 0.24 80 1016.2
20260503203057 73 331 2.6 8.7 0.00 0.24 0.24 80 1016.3
20260503201509 73 350 3.5 9.6 0.00 0.24 0.24 81 1016.2
20260503200049 73 301 2.6 10.4 0.00 0.24 0.24 80 1016.3
20260503194533 72 276 5.2 10.4 0.00 0.24 0.24 81 1016.3
20260503193100 72 214 4.3 10.4 0.00 0.24 0.24 81 1016.2
20260503191503 72 306 4.3 9.6 0.00 0.24 0.24 82 1016.5
20260503190044 71 302 4.3 10.4 0.02 0.24 0.24 83 1016.8
20260503184518 71 234 5.2 11.3 0.04 0.24 0.24 84 1017.1
20260503183037 71 289 2.6 11.3 0.04 0.24 0.24 84 1017.3
20260503181540 71 229 3.5 10.4 0.04 0.24 0.24 84 1017.5
20260503180012 72 278 4.3 11.3 0.02 0.22 0.22 81 1017.7
20260503174604 72 279 4.3 9.6 0.00 0.20 0.20 80 1017.5
20260503173106 72 239 3.5 10.4 0.00 0.20 0.20 80 1017.6
20260503171527 72 291 3.5 8.7 0.00 0.20 0.20 81 1017.5
20260503160118 71 303 5.2 10.4 0.00 0.20 0.20 87 1018.1
20260503081608 71 295 3.5 12.2 0.00 0.00 0.00 87 1014.2
20260503071502 72 285 0.0 2.6 0.00 0.00 0.00 86 1013.4
20260503054551 73 125 0.0 2.6 0.00 0.00 0.00 85 1014.1
20260503053021 74 335 0.0 1.7 0.00 0.00 0.00 84 1014.3
20260503051543 74 101 0.9 2.6 0.00 0.00 0.00 84 1014.3
20260503050042 74 60 0.0 2.6 0.00 0.00 0.00 84 1014.3
20260503044511 74 333 0.0 2.6 0.00 0.00 0.00 83 1014.0
20260503043106 74 202 0.0 1.7 0.00 0.00 0.00 83 1013.5
20260503041527 75 175 0.0 1.7 0.00 0.00 0.00 82 1013.8
20260503040056 75 345 0.0 2.6 0.00 0.00 0.00 82 1013.8
20260503034500 75 353 0.0 3.5 0.00 0.00 0.00 82 1013.6
20260503033028 75 268 0.0 3.5 0.00 0.00 0.00 82 1013.6
20260503031506 76 285 0.9 2.6 0.00 0.00 0.00 81 1013.2
20260503030050 76 54 0.0 2.6 0.00 0.00 0.00 81 1012.5
20260503024549 76 148 0.0 1.7 0.00 0.00 0.00 80 1012.1
20260503023033 77 55 2.6 5.2 0.00 0.00 0.00 79 1012.0
20260503021535 78 64 2.6 5.2 0.00 0.00 0.00 79 1011.7
20260503020037 79 57 2.6 7.8 0.00 0.00 0.00 75 1011.6
20260503014541 79 101 3.5 6.1 0.00 0.00 0.00 74 1011.1
20260503013001 79 48 2.6 6.1 0.00 0.00 0.00 74 1011.5
20260503011524 79 49 1.7 5.2 0.00 0.00 0.00 73 1011.6
20260503010015 79 78 1.7 3.5 0.00 0.00 0.00 74 1011.6
20260503004550 79 67 0.0 2.6 0.00 0.00 0.00 74 1011.5
20260503003038 79 59 0.0 2.6 0.00 0.00 0.00 74 1011.9
20260503001607 79 342 0.9 3.5 0.00 0.00 0.00 73 1011.9
20260503000054 80 125 0.9 3.5 0.00 0.00 0.00 71 1011.5
20260502234601 81 135 0.0 2.6 0.00 0.00 0.00 69 1012.0
20260502233031 82 216 0.0 1.7 0.00 0.00 0.00 67 1011.6
20260502231546 82 111 0.0 2.6 0.00 0.00 0.00 64 1011.5